User: anonymous   Login
Location: Unspecified
(0.0000°N, 0.0000°E)
Time: 14:39:38
(UTC+00:00)
Language:

COSMOS 2439 - Orbit

View from above orbital plane
View from above orbital plane
View from above satellite
View from above satellite

Ground track
Ground track

The orbit data is extracted from the following two-line orbital elements,

1 32956U 08025D   18267.70571296 -.00000009 +00000-0 -13729-3 0  9997
2 32956 082.5061 312.0843 0020493 358.0766 002.0233 12.43004962469137
Epoch (UTC): 24 September 2018 16:56:13
Eccentricity: 0.0020493
inclination: 82.5061°
perigee height: 1478 km
apogee height: 1510 km
right ascension of ascending node: 312.0843°
argument of perigee: 358.0766°
revolutions per day: 12.43004962
mean anomaly at epoch: 2.0233°
orbit number at epoch: 46913

The dashed part of the orbit path shows where the satellite is in the earth's shadow,  

DLR